User: anonymous   Login
Location: Unspecified
(0.0000°N, 0.0000°E)
Time: 03:26:40
(UTC+00:00)
Language:

TerraSAR-X - Orbit

View from above orbital plane
View from above orbital plane
View from above satellite
View from above satellite

Ground track
Ground track

The orbit data is extracted from the following two-line orbital elements,

1 31698U 07026A   18048.34835331  .00000536  00000-0  28730-4 0  9991
2 31698  97.4457  57.5021 0002161  60.3720  46.3004 15.19155160592099
Epoch (UTC): 17 February 2018 08:21:37
Eccentricity: 0.0002161
inclination: 97.4457°
perigee height: 507 km
apogee height: 510 km
right ascension of ascending node: 57.5021°
argument of perigee: 60.3720°
revolutions per day: 15.19155160
mean anomaly at epoch: 46.3004°
orbit number at epoch: 59209

The dashed part of the orbit path shows where the satellite is in the earth's shadow,  

DLR